RS23S (SXC3-21 UTMN) (53376 NORAD) Tracking and Keplerian Element Data

This shows tracking and keplerian element data for the satellite.

Feedback or suggestion? Click here.




ElementValue
Catalog53376
NameRS23S (SXC3-21 UTMN)
Epoch Orbit1585
Epoch Day325.29092032
Epoch Year2022
RAAN226.0682
Inclination97.4274
Eccentricity0.0002927
Argument of Perigee109.9989
Mean Anonmoly346.1864
Mean Motion15.26737639
Decay Rate9.709E-05
L11 53376U 22096G 22325.29092032 .00009709 00000+0 37192-3 0 9993
L22 53376 97.4274 226.0682 0002927 109.9989 346.1864 15.26737639 15850



Live tracking and technical data element details for RS23S (SXC3-21 UTMN) (NORAD 53376). RS23S (SXC3-21 UTMN) can be tracked NOW for your location showing map with azimuth and elevation plus other details from your city location.







IsCatalogInMostPopularTable: catalog: 53376, numindb: 11
Update: records affected: 1



GetName: 53376 RS23S (SXC3-21 UTMN)

Hit Count: updated at: Tue, 29 Nov 2022 01:11:25 GMT